CZ-2C R/B, 43521

Orbit data source: Space-Track

CZ-2C R/B, 43521 is space debris in LEO originally from a launch on Wed, 27 Jun 2018 UTC launched from the Xichang Space Center, China (XSC). Debris objects in space refer to the collection of defunct objects orbiting the Earth. Examples of debris include non-operational satellites, rocket bodies, and fragments generated from explosions, collisions, or faulty payload assembly.

Loading next visibility...
Identifier
43521, 2018-054D
Orbit
LEO
Country
Flag of CNCN / PRC
Related business
Manufacturer
CALT
Mission
Spacecraft
Bus & Motor
CZ-2 STAGE 2, Unknown motor
Mass
~3,800 kg wet, ~3,800 kg dry
Launch date (UTC)
2018-06-27 (7 years ago)
Launch vehicle
Unknown
Launch site
Xichang Space Center, China (XSC)
Object type
Payload
Rocket body
Debris
Shape & HBR
Cyl, 3.7 m
Radar Cross Section
23.715 m², Large (>1 m²)

Expand to show TLE details & history
Last TLE update: 1 day ago

TLE from 1 day ago
0 CZ-2C R/B
1 43521U 18054D   25240.97569612  .00049470  00000-0  64848-3 0  9998
2 43521  35.1367 167.5689 0032122 222.7776 137.0450 15.56826962398489
Epoch: 2025-08-28T23:25Z
TLE epoch observation values (Epoch: 2025-08-28T23:25:00.144Z)
Latitude
-0.00004°
Longitude
-161.11275°
Altitude
411.709 km
Speed
7.657 km/s
True Right ascension
11h 10m 16s
True Declination
0° 00' 00"
Sunlit
Object was in daylight at epoch
Visualization orbit readout
Latitude
Unknown
Longitude
Unknown
Altitude
Unknown
Speed
Unknown
Apparent Right ascension
Unknown
Apparent Declination
Unknown
Sunlit
N/A
Visualization observer readout
Local Sidereal Time
02:45:19
Azimuth
Unknown
Elevation
Unknown
Doppler factor
Unknown
Orbital elements
Apogee altitude
421.896 km
Perigee altitude
378.35 km
Semi-major axis
6,778.26 km
Eccentricity
0.00321
Inclination
35.1367°
RAAN
167.5689°
Arg. of periapsis
222.7776°
True anomaly
137.29509°
Mean anomaly
137.045°
Eccentric anomaly
137.17012°
Mean motion
3.88925 °/min
Orbital period
92.56 mins
BSTAR
0.00064848
Loading maneuver chart data...
Computing Atmospheric mass density...
Loading historical data...
Loading historical data...
Loading historical data...
Loading historical data...
Loading historical data...
Loading historical data...
Loading historical data...
Other satellites on launch #54 in the year 2018 (2018-06-27 UTC)

Documentation

Showing up to 5 results
|